STARLINK-32196, 60430

Orbit data source: Space-Track

STARLINK-32196, 60430 is a payload satellite owned by SpaceX/Seattle (US) in LEO that was launched on Mon, 12 Aug 2024 UTC via an FALCON 9 launch vehicle from the Air Force Eastern Test Range (AFETR). Payload-class satellites include a variety of spacecraft equipped with specific instruments for various scientific and technological missions. These include communications satellites like Starlink; space stations such as the ISS; scientific satellites like the Hubble; Earth observation satellites from companies like Planet Labs, Umbra, and HawkEye 360; GPS; miniature CubeSats for education and research; and military/defense satellites.

Loading next visibility...
Identifier
60430, 2024-144F
Orbit
LEO
Country
Flag of USUS
Related business
Manufacturer
SpaceX/Seattle
Mission
Operational Commercial Communications
Bus & Motor
STARLINK V2M, Unknown motor
Mass
730 kg wet, ~700 kg dry
Launch date (UTC)
2024-08-12 (2 years ago)
Launch vehicle
FALCON 9
Launch site
Air Force Eastern Test Range (AFETR)
Object type
Payload
Rocket body
Debris
Shape & HBR
Box + 2 Pan, 17.7 m
Radar Cross Section
33.884 m², Large (>1 m²)

Expand to show TLE details & history
Last TLE update: 1 day ago

TLE from 1 day ago
0 STARLINK-32196
1 60430U 24144F   26170.53100848  .00001134  00000-0  44712-4 0  9994
2 60430  53.1600 102.5240 0001512  97.1119 263.0055 15.34394465104922
Epoch: 2026-06-19T12:44Z
TLE epoch observation values (Epoch: 2026-06-19T12:44:39.132Z)
Latitude
-0.00008°
Longitude
3.60224°
Altitude
463.747 km
Speed
7.636 km/s
True Right ascension
06h 50m 05s
True Declination
0° 00' 00"
Sunlit
Object was in daylight at epoch
Visualization orbit readout
Latitude
Unknown
Longitude
Unknown
Altitude
Unknown
Speed
Unknown
Apparent Right ascension
Unknown
Apparent Declination
Unknown
Sunlit
N/A
Visualization observer readout
Local Sidereal Time
07:15:34
Azimuth
Unknown
Elevation
Unknown
Doppler factor
Unknown
Orbital elements
Apogee altitude
464.011 km
Perigee altitude
461.942 km
Semi-major axis
6,841.114 km
Eccentricity
0.00015
Inclination
53.16°
RAAN
102.524°
Arg. of periapsis
97.1119°
True anomaly
262.9883°
Mean anomaly
263.0055°
Eccentric anomaly
262.9969°
Mean motion
3.83577 °/min
Orbital period
93.85 mins
BSTAR
0.000044712
Loading maneuver chart data...
Computing Atmospheric mass density...
Loading historical data...
Loading historical data...
Loading historical data...
Loading historical data...
Loading historical data...
Loading historical data...
Loading historical data...

Documentation

Showing up to 5 results
|